TimePST,TemperatureF,Dew PointF,Humidity,Sea Level PressureIn,VisibilityMPH,Wind Direction,Wind SpeedMPH,Gust SpeedMPH,PrecipitationIn,Events,Conditions,WindDirDegrees,DateUTC
12:49 AM,50.0,46.4,87,29.36,10.0,ENE,11.5,-,0.00,,Overcast,70,2012-11-30 08:49:00
12:53 AM,50.0,46.9,89,29.37,10.0,ENE,10.4,-,0.00,,Overcast,70,2012-11-30 08:53:00
1:53 AM,50.0,46.9,89,29.37,4.0,ENE,8.1,-,0.07,Rain,Rain,70,2012-11-30 09:53:00
2:17 AM,48.2,48.2,100,29.35,4.0,ENE,10.4,-,0.13,Rain,Rain,70,2012-11-30 10:17:00
2:49 AM,48.2,48.2,100,29.35,9.0,ENE,8.1,-,0.18,Rain,Light Rain,70,2012-11-30 10:49:00
2:53 AM,50.0,48.0,93,29.36,10.0,ENE,8.1,-,0.18,,Overcast,70,2012-11-30 10:53:00
3:53 AM,50.0,48.0,93,29.33,10.0,ENE,8.1,-,N/A,,Overcast,60,2012-11-30 11:53:00
4:53 AM,50.0,46.9,89,29.31,6.0,ENE,13.8,-,0.02,Rain,Rain,70,2012-11-30 12:53:00
5:53 AM,50.0,48.0,93,29.33,4.0,ESE,21.9,32.2,0.10,Rain,Rain,110,2012-11-30 13:53:00
6:02 AM,50.0,48.2,94,29.32,2.0,SE,19.6,28.8,0.06,Rain,Rain,130,2012-11-30 14:02:00
6:09 AM,50.0,48.2,94,29.32,2.0,SE,9.2,25.3,0.12,Rain,Rain,130,2012-11-30 14:09:00
6:18 AM,51.8,48.2,88,29.32,4.0,ESE,12.7,24.2,0.16,Rain,Light Rain,120,2012-11-30 14:18:00
6:53 AM,53.1,50.0,89,29.35,10.0,SSE,20.7,29.9,0.17,,Overcast,160,2012-11-30 14:53:00
7:34 AM,53.6,48.2,82,29.34,9.0,SSE,20.7,29.9,0.01,,Overcast,160,2012-11-30 15:34:00
7:53 AM,54.0,48.9,83,29.35,10.0,SSE,21.9,29.9,0.01,,Overcast,160,2012-11-30 15:53:00
8:08 AM,53.6,48.2,82,29.34,8.0,SSE,19.6,28.8,N/A,,Overcast,160,2012-11-30 16:08:00
8:53 AM,53.1,48.9,86,29.37,5.0,SSE,21.9,34.5,0.02,Rain,Light Rain,160,2012-11-30 16:53:00
9:08 AM,53.6,48.2,82,29.37,3.0,South,20.7,34.5,0.03,Rain,Light Rain,170,2012-11-30 17:08:00
9:15 AM,51.8,50.0,94,29.36,2.0,South,24.2,29.9,0.05,Rain,Light Rain,170,2012-11-30 17:15:00
9:26 AM,53.6,50.0,88,29.37,9.0,SSE,26.5,34.5,0.06,,Overcast,160,2012-11-30 17:26:00
9:41 AM,53.6,50.0,88,29.37,8.0,SSE,25.3,40.3,0.06,,Overcast,160,2012-11-30 17:41:00
9:53 AM,53.1,48.9,86,29.39,10.0,SSE,24.2,38.0,0.06,,Overcast,160,2012-11-30 17:53:00
10:29 AM,53.6,50.0,88,29.39,5.0,SSE,23.0,29.9,0.02,Rain,Light Rain,160,2012-11-30 18:29:00
10:53 AM,54.0,50.0,86,29.40,5.0,SSE,27.6,39.1,0.04,,Overcast,160,2012-11-30 18:53:00
11:02 AM,53.6,50.0,88,29.38,9.0,SSE,21.9,32.2,N/A,,Overcast,160,2012-11-30 19:02:00
11:13 AM,53.6,50.0,88,29.38,6.0,South,20.7,29.9,0.01,,Overcast,170,2012-11-30 19:13:00
11:23 AM,53.6,50.0,88,29.38,5.0,South,28.8,39.1,0.01,Rain,Light Rain,170,2012-11-30 19:23:00
11:33 AM,53.6,50.0,88,29.38,2.5,South,20.7,34.5,0.05,Rain,Rain,170,2012-11-30 19:33:00
11:43 AM,53.6,50.0,88,29.38,3.0,South,23.0,31.1,0.08,Rain,Rain,170,2012-11-30 19:43:00
11:53 AM,53.1,50.0,89,29.39,4.0,South,27.6,38.0,0.11,Rain,Light Rain,170,2012-11-30 19:53:00
12:23 PM,51.8,50.0,94,29.38,1.8,South,17.3,26.5,0.05,Rain,Rain,180,2012-11-30 20:23:00
12:32 PM,53.6,50.0,88,29.38,2.5,South,21.9,29.9,0.07,Rain,Light Rain,170,2012-11-30 20:32:00
12:34 PM,53.6,50.0,88,29.38,3.0,South,21.9,29.9,0.08,Rain,Light Rain,170,2012-11-30 20:34:00
12:53 PM,54.0,50.0,86,29.40,9.0,South,27.6,38.0,0.09,,Overcast,180,2012-11-30 20:53:00
1:14 PM,53.6,48.2,82,29.39,9.0,South,26.5,32.2,N/A,,Overcast,170,2012-11-30 21:14:00
1:30 PM,51.8,48.2,88,29.39,2.5,South,13.8,-,0.01,,Overcast,180,2012-11-30 21:30:00
1:47 PM,53.6,48.2,82,29.39,4.0,South,19.6,28.8,0.04,Rain,Light Rain,190,2012-11-30 21:47:00
1:53 PM,53.1,50.0,89,29.40,3.0,South,20.7,28.8,0.05,Rain,Light Rain,180,2012-11-30 21:53:00
2:04 PM,53.6,50.0,88,29.39,2.5,South,19.6,27.6,0.04,Rain,Rain,180,2012-11-30 22:04:00
2:11 PM,53.6,50.0,88,29.39,2.0,South,19.6,27.6,0.07,Rain,Rain,180,2012-11-30 22:11:00
2:17 PM,51.8,50.0,94,29.39,1.8,South,18.4,27.6,0.11,Rain,Rain,190,2012-11-30 22:17:00
2:26 PM,53.6,51.8,94,29.39,3.0,South,21.9,31.1,0.13,Rain,Light Rain,190,2012-11-30 22:26:00
2:53 PM,53.1,50.0,89,29.40,6.0,South,25.3,31.1,0.14,Rain,Light Rain,170,2012-11-30 22:53:00
3:53 PM,51.8,48.2,88,29.41,6.0,SSE,18.4,28.8,N/A,Rain,Light Rain,160,2012-11-30 23:53:00
4:53 PM,51.1,48.0,89,29.42,9.0,SE,16.1,-,0.04,Rain,Light Rain,130,2012-12-01 00:53:00
5:53 PM,51.1,46.9,86,29.41,10.0,SE,15.0,25.3,0.01,Rain,Light Rain,140,2012-12-01 01:53:00
6:53 PM,51.1,48.0,89,29.40,6.0,SSE,17.3,24.2,0.07,Rain,Light Rain,150,2012-12-01 02:53:00
7:02 PM,51.8,48.2,88,29.38,8.0,SSE,12.7,-,0.01,Rain,Light Rain,150,2012-12-01 03:02:00
7:38 PM,51.8,48.2,88,29.37,6.0,ESE,11.5,-,0.04,Rain,Light Rain,120,2012-12-01 03:38:00
7:46 PM,51.8,48.2,88,29.37,9.0,ESE,12.7,-,0.04,Rain,Light Rain,110,2012-12-01 03:46:00
7:53 PM,51.1,48.0,89,29.38,10.0,ESE,12.7,-,0.04,Rain,Light Rain,110,2012-12-01 03:53:00
8:05 PM,51.8,48.2,88,29.36,10.0,East,10.4,-,0.00,,Overcast,90,2012-12-01 04:05:00
8:30 PM,50.0,48.2,94,29.36,9.0,ENE,6.9,-,0.00,Rain,Light Rain,70,2012-12-01 04:30:00
8:53 PM,50.0,48.0,93,29.37,7.0,ESE,11.5,-,0.02,Rain,Light Rain,110,2012-12-01 04:53:00
9:13 PM,51.8,48.2,88,29.36,4.0,SE,20.7,32.2,0.05,Rain,Rain,140,2012-12-01 05:13:00
9:22 PM,51.8,48.2,88,29.35,4.0,SE,20.7,26.5,0.08,Rain,Light Rain,130,2012-12-01 05:22:00
9:41 PM,50.0,48.2,94,29.36,5.0,SSE,20.7,29.9,0.12,Rain,Light Rain,150,2012-12-01 05:41:00
9:53 PM,50.0,48.0,93,29.37,6.0,SSE,18.4,-,0.15,Rain,Light Rain,150,2012-12-01 05:53:00
10:09 PM,50.0,46.4,87,29.36,7.0,SE,17.3,-,0.02,Rain,Light Rain,130,2012-12-01 06:09:00
10:53 PM,48.9,46.0,90,29.34,10.0,East,10.4,-,0.02,,Overcast,80,2012-12-01 06:53:00
11:53 PM,48.0,46.0,93,29.36,10.0,East,10.4,-,0.00,Rain,Light Rain,80,2012-12-01 07:53:00